Simultaneous Nadir Overpasses (SNOs) Predictions

Prediction of SNOs between GOES-15 and TERRA Satellite Orbit:

Table of predicted SNOs for the next 14.0 days since TLE Epoch: 4/30/2016
Index Date Time (GOES-15) GOES-15 Lat,Lon TERRA Lat,Lon Distance(km) Time Diff (sec)
1 04/30/2016 19:28:06 -0.07,-135.33 -0.30,-134.14 134.78 80
2 05/01/2016 07:49:30 0.08,-135.29 -0.78,-139.33 460.13 80
3 05/02/2016 19:15:57 -0.08,-135.29 -0.92,-131.19 466.19 80
4 05/03/2016 07:37:21 0.08,-135.25 -0.16,-136.38 128.88 80
5 05/05/2016 07:22:32 0.08,-135.21 0.46,-133.44 201.77 80
6 05/05/2016 19:43:48 -0.08,-135.23 0.66,-138.59 383.00 80
7 05/07/2016 19:31:39 -0.08,-135.18 0.03,-135.65 53.17 80
8 05/09/2016 19:22:10 -0.09,-135.13 -0.61,-132.70 276.01 80
9 05/10/2016 07:43:34
